Preview of NWS' New Version of Forecast
This preview is not operational and should not be used for support decisions.
Latest weather observations around

Louisville, Bowman Field Airport (KLOU)

Using International System of Units (Switch to English Units)
Date/ Time (EDT) Wind (kph) Vis. (km) Weather Sky Cond. Temp (°C) Rel. Humidity Wind Chill (°C) Heat Index (°C) Pressure Precip. (cm)
Air Dwpt 6 hour Altimeter (hPa) Sea level (hPa) 1 hr 3 hr 6 hr
Max Min
Apr 22 15:53 S 17 16.09 Clear CLR 24 7     33%   24 1020 1019.7      
Apr 22 14:53 SSE 13 16.09 Clear CLR 24 7     34%   23 1020.7 1020.5      
Apr 22 13:53 SE 17 16.09 Clear CLR 23 6     33%   23 1021.3 1021      
Apr 22 12:53 SSE 13 16.09 Clear CLR 23 5     31%   22 1021.7 1021.5      
Apr 22 11:53 SSE 9 16.09 Clear CLR 21 6     38%     1022.4 1022.3      
Apr 22 10:53 SSE 8 16.09 Clear CLR 19 6     43%     1023 1022.8      
Apr 22 09:53 SSE 5 16.09 Clear CLR 16 6     52%     1023.4 1023.3      
Apr 22 08:53 SE 8 16.09 Clear CLR 12 6     66%     1023 1023      
Apr 22 07:53 E 5 16.09 Clear CLR 8 6     83% 8   1022.7 1022.5      
Apr 22 06:53 E 5 16.09 Clear CLR 7 4     85% 6   1021.7 1021.5      
Apr 22 05:53 Calm 16.09 Clear CLR 7 4     80%     1021.3 1021      
Apr 22 04:53 WNW 5 16.09 Clear CLR 6 4     86% 5   1021 1020.7      
Apr 22 03:53 Calm 16.09 Clear CLR 8 5     80%     1021 1020.7      
Apr 22 02:53 Calm 16.09 Clear CLR 8 5     80%     1021.3 1021      
Apr 22 01:53 Calm 16.09 Clear CLR 8 5     80%     1021.3 1021.3      
Apr 22 00:53 Calm 16.09 Clear CLR 10 4     68%     1021.3 1021.1      
Apr 21 23:53 Calm 16.09 Clear CLR 11 4     63%     1021 1020.9      
Apr 21 22:53 Calm 16.09 Clear CLR 12 3     55%     1020.7 1020.7      
Apr 21 21:53 Calm 16.09 Clear CLR 16 2     39%     1020.7 1020.4      
Apr 21 20:53 E 5 16.09 Clear CLR 18 1     30%     1020 1019.9      
Apr 21 19:53 Calm 16.09 Clear CLR 21 -1     23%     1019.3 1019.3      
Apr 21 18:53 Calm 16.09 Clear CLR 21 -1     23%     1019.3 1019.1      
Apr 21 17:53 Calm 16.09 Clear CLR 22 -1     23%   21 1019 1018.8      
Apr 21 16:53 8 16.09 Clear CLR 21 -2     22%     1019 1018.9      
Apr 21 15:53 Calm 16.09 Clear CLR 21 3     31%     1019.3 1019.1      
Apr 21 14:53 NW 8 16.09 Clear CLR 19 3     34%     1019.3 1019.3      
Apr 21 13:53 NW 5 16.09 Clear CLR 18 2     34%     1019.3 1019.3      
Apr 21 12:53 Calm 16.09 Clear CLR 16 3     44%     1019.7 1019.5      
Apr 21 11:53 ESE 5 16.09 Clear CLR 13 6     62%     1019.7 1019.6      
Apr 21 10:53 Calm 16.09 Clear CLR 11 7     79%     1019 1019.1      
Apr 21 09:53 Calm 16.09 Partly Cloudy SCT002 8 7     93%     1019 1019.1      
Apr 21 09:30 S 5 4.83 Fog/Mist SCT002 7 6     96% 6   1019        
Apr 21 09:25 S 5 3.22 Fog/Mist OVC002 6 6     100% 5   1019        
Apr 21 08:53 Calm 0.4 Fog VV002 5 5     100%     1018.6 1018.7      
Apr 21 07:53 ESE 5 0.4 Fog VV002 4 3     96% 3   1018 1018      
Apr 21 07:00 Calm 0.4 Fog VV001 3 3     97%     1016.9        
Apr 21 06:53 Calm 1.61 Fog/Mist OVC001 4 3     96%     1016.6 1016.9      
Apr 21 06:51 E 5 2.41 Fog/Mist OVC001 4 3     93% 3   1016.6        
Apr 21 06:35 Calm 4.83 Fog/Mist OVC002 4 3     96%     1016.3        
Apr 21 06:22 ESE 5 1.61 Fog/Mist OVC002 4 3     93% 3   1016.3        
Apr 21 05:53 Calm 0.4 Fog VV002 3 3     97%     1015.9 1015.9      
Apr 21 04:53 Calm 0.8 Fog VV002 4 3     93%     1014.9 1015.2      
Apr 21 04:44 Calm 0.8 Fog CLR 4 4     97%     1014.9        
Apr 21 04:34 Calm 2.82 Fog/Mist CLR 4 4     97%     1014.9        
Apr 21 03:53 Calm 11.27 Clear CLR 5 4     93%     1014.2 1014.5      
Apr 21 02:53 W 5 16.09 Clear CLR 5 4     96% 4   1013.9 1014      
Apr 21 01:53 WSW 5 16.09 Cloudy BKN080 OVC100 7 5     89% 6   1013.6 1013.5     0
Apr 21 00:53 WSW 8 16.09 Cloudy OVC080 7 6     93% 5   1012.9 1013.1      
Apr 20 23:53 SW 8 12.87 Cloudy OVC080 7 6     93% 5   1012.9 1012.9      
Apr 20 22:53 SW 5 16.09 Cloudy FEW012 SCT070 OVC090 7 6     93% 6   1012.5 1012.6   0  
Apr 20 21:53 WSW 5 16.09 Cloudy FEW010 SCT015 OVC047 7 5     89% 6   1012.2 1012.2 0    
Apr 20 21:40 W 5 16.09 Cloudy SCT009 OVC045 7 5     89% 6   1011.9   0    
Apr 20 20:53 Calm 16.09 Light Rain FEW016 OVC043 7 5     89%     1011.2 1011.3 0    
Apr 20 19:53 Calm 16.09 Light Rain OVC046 7 4     85%     1010.2 1010.4 0   0
Apr 20 19:38 Calm 16.09 Cloudy SCT026 OVC050 7 4     85%     1010.2   0    
Apr 20 19:11 Calm 16.09 Light Rain BKN026 OVC036 7 4     82%     1009.8   0    
Apr 20 18:53 NNW 8 16.09 Light Rain FEW024 OVC036 7 4     82% 5   1009.8 1009.8 0    
Apr 20 18:36 Calm 14.48 Light Rain FEW010 SCT026 OVC036 7 5     89%     1009.5   0    
Apr 20 17:53 Calm 16.09 Light Rain SCT013 BKN020 OVC032 7 4     85%     1008.8 1008.9 0    
Apr 20 17:23 NNW 5 16.09 Cloudy BKN014 BKN021 OVC027 7 4     85% 6   1008.5   0    
Apr 20 16:53 N 8 16.09 Cloudy BKN016 BKN025 OVC038 7 4     82% 5   1008.1 1008.4 0 0  
Apr 20 16:35 NNW 13 16.09 Light Rain SCT014 BKN021 OVC048 7 3     79% 4   1008.1   0    
Apr 20 16:27 9 16.09 Light Rain SCT016 BKN034 OVC046 7 4     85% 5   1007.8   0    
Apr 20 16:00 NNW 18 14.48 Light Rain BKN016 OVC022 6 4     86% 3   1007.8   0    
Apr 20 15:53 N 15 14.48 Light Rain BKN014 BKN020 OVC048 6 4     86% 3   1007.5 1007.8 0    
Apr 20 15:16 NW 15 16.09 Light Rain BKN014 BKN026 OVC034 6 4     86% 3   1007.1   0    
Apr 20 14:53 N 18 11.27 Light Rain SCT014 BKN023 OVC033 6 3     85% 2   1007.1 1007.2 0    
Apr 20 13:53 11 16.09 Light Rain BKN018 BKN027 OVC036 6 3     82% 4   1006.1 1006.4 0   1
Apr 20 13:42 NNW 13 16.09 Light Rain SCT018 SCT027 OVC036 6 3     82% 3   1006.1   0    
Apr 20 13:27 NW 18 16.09 Light Rain FEW012 BKN024 OVC036 6 3     82% 3   1005.8   0    
Apr 20 12:53 NNW 17 11.27 Light Rain BKN013 OVC022 6 4     89% 2   1005.4 1005.6 0    
Apr 20 11:53 NW 11 16.09 Cloudy OVC013 6 3     85% 3   1004.4 1004.7 0    
Apr 20 11:45 NW 13 16.09 Cloudy BKN013 OVC020 6 3     85% 3   1004.4   0    
Apr 20 11:25 NNW 13 16.09 Light Rain FEW010 OVC017 6 3     85% 3   1004.1   0    
Apr 20 10:53 5 16.09 Light Rain BKN010 OVC016 4 3     89% 3   1003.7 1003.8 0 1  
Apr 20 10:40 NW 9 16.09 Light Rain SCT010 BKN014 OVC025 4 2     86% 2   1003.7   0    
Apr 20 10:17 NNW 17 12.87 Light Rain FEW009 BKN024 OVC035 4 2     86% 0   1003.4   0    
Apr 20 10:14 NW 13 12.87 Light Rain BKN011 BKN026 OVC033 4 2     86% 1   1003.4   0    
Apr 20 09:53 NW 15 8.05 Rain and Fog/Mist SCT011 OVC023 4 2     89% 0   1003.1 1003 0    
Apr 20 09:01 NNW 9 6.44 Rain and Fog/Mist FEW010 OVC017 4 2     89% 2   1002   0    
Apr 20 08:53 NNW 8 6.44 Rain and Fog/Mist FEW010 BKN014 OVC019 4 3     93% 2   1002 1002.2 0    
Apr 20 08:10 8 6.44 Rain and Fog/Mist BKN012 OVC018 3 2     92% 1   1001.7   0    
Apr 20 07:53 NNW 15 8.05 Rain and Fog/Mist SCT012 OVC022 3 2     89% 0   1001.7 1001.7 0   2
Apr 20 07:04 N 13 6.44 Heavy Rain and Fog/Mist SCT012 OVC019 4 2     86% 1   1001   0    
Apr 20 06:53 N 11 8.05 Rain and Fog/Mist BKN012 OVC019 4 2     89% 1   1001 1001.1 0    
Apr 20 06:32 Calm 8.05 Rain and Fog/Mist BKN013 OVC018 4 3     93%     1001   0    
Apr 20 05:53 NNW 15 6.44 Rain and Fog/Mist BKN015 OVC019 4 3     89% 1   1000.7 1000.8 0    
Apr 20 05:46 NNW 9 6.44 Heavy Rain and Fog/Mist BKN013 OVC019 4 3     89% 2   1000.7   0    
Apr 20 05:26 N 13 6.44 Heavy Rain and Fog/Mist SCT014 OVC021 4 3     89% 1   1000.7   0    
Apr 20 04:53 N 8 8.05 Rain and Fog/Mist BKN012 BKN018 OVC023 5 3     89% 3   1000 1000.2 0 1  
Apr 20 04:12 NW 8 11.27 Rain BKN010 BKN015 OVC021 6 4     89% 4   999.7   0    
Apr 20 03:53 NNW 11 8.05 Rain and Fog/Mist SCT012 OVC017 6 4     89% 3   1000 999.9 0    
Apr 20 03:51 NNW 8 8.05 Rain and Fog/Mist SCT012 OVC017 6 4     87% 4   999.7   0    
Apr 20 02:53 9 6.44 Light Rain and Fog/Mist BKN011 OVC017 6 4     92% 4   999.7 999.7 0    
Apr 20 02:31 N 11 9.66 Light Rain and Fog/Mist BKN012 OVC017 6 4     89% 4   999.3   0    
Apr 20 01:53 N 13 16.09 Cloudy OVC016 6 4     89% 3   999.7 999.7 0   3
Apr 20 01:29 N 13 16.09 Light Rain OVC014 7 4     85% 4   999.7   0    
Apr 20 00:53 9 9.66 Rain and Fog/Mist BKN009 BKN050 OVC060 7 5     89% 5   999.3 999.5 0    
Apr 19 23:53 N 24 8.05 Rain and Fog/Mist SCT005 SCT012 OVC050 7 6     93% 3   998.3 998.2 1    
Apr 19 23:30 NNW 21 6.44 Heavy Rain and Fog/Mist FEW007 BKN012 OVC044 7 6     93% 3   999.3   0    
Apr 19 23:18 NNW 11 6.44 Heavy Rain and Fog/Mist BKN010 BKN016 OVC023 7 6     96% 4   1000.7   0    
Apr 19 23:11 N 8 6.44 Heavy Rain and Fog/Mist BKN008 BKN014 OVC021 7 6     96% 5   1001.4   0    
Apr 19 22:55 NNW 8 4.83 Heavy Rain and Fog/Mist FEW008 BKN018 OVC023 7 6     93% 5   1000.7   0    
Apr 19 22:53 NNW 13 4.02 Heavy Rain and Fog/Mist FEW008 BKN013 OVC020 7 6     93% 4   1000.3 1000.5 1 2  
Apr 19 22:46 9 3.22 Heavy Rain and Fog/Mist FEW008 BKN013 OVC020 7 6     93% 5   1000.3   1    
Apr 19 22:29 NNW 8 4.02 Heavy Rain and Fog/Mist SCT010 OVC018 7 6     93% 6   1000.7   1    
Apr 19 22:22 NNW 9 4.83 Heavy Rain and Fog/Mist FEW010 BKN013 OVC018 7 6     90% 5   1000.3   0    
Apr 19 22:01 N 15 4.02 Heavy Rain and Fog/Mist SCT008 OVC014 7 6     90% 5   1000.3   0    
Apr 19 21:53 N 11 4.83 Heavy Rain and Fog/Mist BKN010 OVC014 7 6     90% 5   1000 999.9 0    
Apr 19 21:08 N 22 14.48 Light Rain OVC010 8 6     86% 4   998.3   0    
Apr 19 20:53 N 28 16.09 Light Rain OVC009 8 6     89% 4   998 998 0    
Apr 19 19:53 N 21 4.83 Heavy Rain and Fog/Mist BKN009 BKN014 OVC020 8 6     89% 5   998.7 998.6 1   1
Apr 19 19:49 N 17 4.83 Heavy Rain and Fog/Mist BKN009 BKN014 OVC020 8 6     87% 5   998.3   1    
Apr 19 19:32 NNW 18 4.02 Heavy Rain and Fog/Mist BKN009 BKN014 OVC020 8 6     89% 5   998.7   0    
Apr 19 19:13 N 15 6.44 Rain and Fog/Mist BKN009 BKN014 OVC020 8 6     89% 5   998.7   0    
Apr 19 19:05 N 18 4.02 Rain and Fog/Mist BKN009 BKN014 OVC020 8 6     89% 5   998.7   0    
Apr 19 18:53 N 21 2.41 Heavy Rain and Fog/Mist BKN009 OVC016 8 6     89% 5   998.7 998.5 0    
Apr 19 18:39 N 21 2.82 Heavy Rain and Fog/Mist BKN009 OVC016 8 6     89% 5   998.3   0    
Apr 19 18:26 N 18 6.44 Light Rain and Fog/Mist BKN009 OVC016 8 7     93% 5   998.3   0    
Apr 19 18:19 N 13 6.44 Rain and Fog/Mist BKN010 OVC016 8 7     90% 6   998.3   0    
Apr 19 18:00 N 15 11.27 Light Rain BKN008 OVC014 8 7     90% 6   998.7   0    
Apr 19 17:53 N 18 12.87 Light Rain OVC010 8 7     90% 5   998.7 998.5 0    
Apr 19 17:50 N 18 12.87 Light Rain OVC010 8 7     93% 5   998.7   0    
Apr 19 17:27 N 17 12.87 Light Rain OVC009 8 7     90% 6   998.7   0    
Apr 19 16:56 N 17 4.83 Light Rain and Fog/Mist BKN007 OVC012 8 7     90% 6   999   0    
Apr 19 16:53 N 21 4.02 Light Rain and Fog/Mist BKN008 OVC012 8 7     90% 5   999 999 0 0  
Apr 19 16:18 N 17 6.44 Light Rain and Fog/Mist BKN008 OVC014 8 7     93% 5   999.3   0    
Apr 19 16:08 NNW 17 4.83 Light Rain and Fog/Mist OVC007 8 6     89% 5   999.3   0    
Apr 19 15:53 N 18 4.83 Light Rain and Fog/Mist BKN009 OVC015 8 6     89% 5   999.7 999.5 0    
May 15 07:53 Calm 16.09 Mostly Clear FEW065 24 20     79%   24 1014.6 1013.8      
May 15 04:53 SW 5 16.09 Clear CLR 24 19     76%   24 1012.9 1012.2      
May 14 19:53 SSW 13 16.09 Mostly Clear FEW070 30 18     50%   31 1011.9 1011.3      
May 14 18:53 SSW 17 16.09 Mostly Clear FEW065 31 18     45%   32 1012.2 1011.7      
May 14 12:53 WNW 18 16.09 Mostly Clear FEW055 31 19     50%   32 1016.6 1015.8      
May 14 11:53 NW 17 16.09 Partly Cloudy SCT065 30 19     51%   31 1016.9 1016.3      
May 14 00:53 S 9 16.09 Clear CLR 23 19     76%   24 1015.6 1014.9      
May 12 16:53 WSW 13 16.09 Clear   31 18     48%   32 1017.3 1016.6      
May 12 11:53 SW 15 16.09 Clear CLR 28 18     53%   29 1019 1018.5      
May 12 07:53 SSW 8 16.09 Clear CLR 23 17     68%   23 1018.3 1017.6      
May 12 04:53 S 11 16.09 Clear CLR 22 16     70%   22 1016.6 1016.1      
May 12 03:53 S 11 16.09 Clear CLR 22 16     68%   22 1016.6 1016      
May 12 01:53 SSW 11 16.09 Clear CLR 23 17     66%   23 1016.3 1015.7      
May 11 23:53 S 5 16.09 Clear CLR 24 17     64%   24 1015.9 1015.4      
May 11 16:53 SW 21 16.09 Clear CLR 31 16     42%   31 1014.6 1013.8      
Jun 12 07:53 S 8 16.09 Mostly Cloudy BKN070 24 21     79%   25 1020.3 1019.5      
Jun 12 05:53 Calm 16.09 Partly Cloudy SCT050 SCT070 22 19     82%   23 1019.7 1018.9      
Jun 11 17:53 S 15 16.09 Mostly Clear FEW070 30 17     46%   30 1018.6 1018.1      
Jun 11 06:53 Calm 16.09 Clear CLR 19 16     81%     1020 1019.4      
Jun 09 03:53 Calm 16.09 Clear CLR 14 12     89%     1012.9 1012.6      
Jun 09 00:53 Calm 16.09 Clear CLR 16 12     80%     1013.2 1013      
Jun 08 15:53 5 16.09 Partly Cloudy SCT047 23 12     48%   23 1014.2 1013.9      
Jun 08 14:53 Calm 16.09 Cloudy OVC060 22 11     51%   21 1014.9 1014.7      
Jun 06 09:53 ENE 13 16.09 Clear CLR 20 14     68%     1013.6 1013.2      
Jun 05 20:07 SSW 11 16.09 Clear CLR 20 18     90%     1008.1        
Notice The following observation data may not be complete
Jun 05 19:19 8 8.05 Thunderstorms and Rain SCT026 BKN039 OVC100   17      %     1006.4   1